Theta_e
320 318 318 318 317 317 316 316 316 316 317 317 317 317 316 317 317 318 319 324 328 328 326 325 326 324 326 327 326 325 325 324 323 322 322 320 321 321 319 315 318 323 322
318 318 317 317 316 316 316 316 315 315 314 313 312 312 313 314 314 316 318 319 321 322 323 324 324 323 323 323 323 323 323 323 325 324 323 322 320 317 318 322 322 321 320
318 317 317 316 316 315 315 314 314 313 312 312 312 311 311 311 311 311 313 314 316 316 316 317 318 321 323 323 323 323 322 321 321 321 323 324 322 323 323 320 318 314 318
318 317 316 316 315 315 314 313 312 312 312 311 311 310 310 310 310 310 312 312 313 313 313 313 313 314 316 318 322 323 323 322 322 321 322 322 322 323 322 321 319 319 319
317 316 315 315 314 313 312 312 311 310 310 311 312 312 312 312 312 312 312 312 312 312 312 312 312 312 313 314 314 316 317 318 320 321 321 321 321 321 320 320 319 319 322
316 315 314 313 313 312 311 310 309 309 309 309 309 309 309 309 309 309 310 310 311 311 311 311 311 311 311 311 311 311 310 311 313 314 316 319 319 319 318 319 320 318 318
314 313 313 312 312 310 309 309 308 308 307 307 307 307 307 307 307 307 308 309 309 309 309 309 309 309 310 310 310 310 310 310 309 311 313 315 317 317 318 319 320 319 318
313 312 312 310 309 309 308 308 307 307 307 306 306 305 305 305 305 305 305 304 303 304 305 305 306 307 307 307 306 306 306 307 308 309 309 311 315 315 317 318 318 318 318
311 309 309 308 308 308 307 307 306 305 303 303 304 304 304 306 306 305 303 303 302 303 304 304 304 306 307 306 302 301 301 303 306 306 306 308 311 313 315 316 316 317 317
308 308 307 307 306 306 306 305 303 301 301 302 304 304 305 306 308 306 305 303 303 304 305 305 304 304 303 301 300 299 299 300 301 302 303 304 306 310 312 313 316 316 316
306 306 306 305 305 304 302 301 300 302 302 303 304 305 305 305 307 306 305 302 302 301 301 304 304 303 302 300 299 299 299 300 300 300 301 301 304 307 310 311 315 314 315
304 304 303 303 301 300 300 301 300 301 301 302 301 304 306 305 304 304 303 302 300 298 299 300 302 301 300 300 299 300 299 299 299 300 302 303 305 308 309 311 311 313 314
302 301 300 299 299 299 300 301 300 299 299 301 300 300 302 303 302 301 301 301 301 299 298 299 299 299 300 300 301 302 302 301 300 302 303 304 305 308 311 313 313 313 314
297 297 297 297 298 298 298 298 299 300 300 299 298 298 299 301 302 302 300 300 299 298 297 298 298 299 299 300 302 303 302 303 304 304 306 307 306 308 310 311 312 313 314
293 294 295 296 297 298 299 299 300 302 298 298 299 297 297 298 300 300 299 298 298 297 296 296 297 298 298 300 303 303 304 305 305 306 306 307 309 310 311 311 312 312 312
292 294 294 295 296 297 298 302 302 302 302 301 300 297 297 298 299 299 298 298 298 297 296 296 296 297 298 301 303 305 306 306 307 307 308 308 309 308 309 310 312 312 312
292 293 293 294 295 296 298 299 302 305 303 303 300 299 299 299 299 298 297 297 297 297 296 296 296 297 300 302 304 305 307 308 308 309 309 309 309 308 309 310 313 314 316
292 292 292 293 294 296 296 297 297 297 297 302 302 300 299 299 299 298 298 297 297 296 296 296 297 299 302 303 305 305 307 309 309 310 311 311 311 313 314 316 318 317 317
291 292 292 293 294 294 295 296 294 295 296 296 298 300 299 299 299 299 299 298 296 296 297 299 302 303 304 307 309 309 310 312 313 314 313 313 313 315 315 314 315 316 318
291 292 292 293 293 294 295 294 295 295 295 296 297 298 299 299 299 299 299 299 298 300 301 301 302 304 307 310 311 311 311 312 314 313 314 314 315 315 317 316 314 315 316
292 292 292 292 292 293 293 293 294 294 295 296 297 299 299 299 299 299 300 299 301 303 304 305 306 308 312 312 314 314 314 315 316 316 315 316 316 316 316 314 316 315 315
292 291 291 291 292 292 291 292 292 292 293 295 297 299 299 299 299 300 300 302 303 304 306 308 308 311 312 313 315 315 315 315 315 315 317 317 316 316 315 314 315 315 315
291 291 292 292 291 291 291 291 291 292 293 294 296 298 299 300 300 300 300 302 303 304 307 309 311 313 314 316 315 316 317 316 316 315 315 316 318 315 315 315 316 317 318
290 290 291 291 291 291 290 289 290 290 292 294 295 297 298 300 301 301 301 302 303 304 308 309 311 314 315 315 315 316 316 316 318 319 318 318 317 316 315 316 317 318 318
290 291 290 290 290 290 290 289 288 289 290 292 294 295 297 299 301 301 301 302 304 305 308 309 310 312 313 312 314 315 315 315 315 316 316 316 315 316 316 316 317 320 321
290 291 291 290 290 290 290 289 289 288 289 290 292 294 296 298 300 301 301 302 305 306 308 308 309 310 311 310 312 315 315 315 315 316 315 316 316 316 317 319 321 322 320
Wind_Speed
10 10 12 17 19 20 20 20 20 21 23 24 25 25 25 23 22 24 26 30 33 35 35 36 38 37 35 35 35 35 36 36 41 40 36 32 29 26 30 33 23 21 24
7 9 12 15 19 21 23 26 27 28 28 28 29 30 31 32 31 31 30 30 31 32 34 37 39 38 41 41 41 41 40 41 41 46 42 41 38 34 27 21 17 19 26
11 15 16 19 24 27 29 31 31 30 30 30 31 32 32 32 32 32 33 35 36 36 34 34 34 32 35 38 41 43 45 45 45 44 43 37 33 29 23 26 32 37 26
15 17 20 22 25 28 30 31 31 30 32 34 34 35 35 34 34 33 35 36 40 40 40 39 38 35 33 31 28 34 37 40 43 46 44 42 37 35 39 40 39 27 27
16 20 22 25 29 31 31 30 31 31 30 29 29 28 28 28 28 29 30 33 36 39 40 41 40 40 39 37 35 34 31 31 34 38 41 36 34 35 36 34 31 31 25
17 21 26 27 29 33 31 30 29 28 29 31 33 34 37 36 37 39 40 40 42 44 47 49 48 48 48 49 49 48 45 40 38 31 30 37 37 37 37 33 25 19 23
22 24 26 29 28 26 28 30 33 36 38 40 41 42 44 44 44 44 44 46 48 48 50 51 53 55 55 55 57 57 56 52 46 40 37 31 34 36 37 34 38 34 32
19 21 24 24 25 29 32 36 40 43 46 49 51 52 54 54 52 51 50 50 52 53 52 49 47 45 42 40 39 41 43 45 50 52 47 41 30 34 36 39 42 42 40
20 21 23 25 29 34 39 43 46 50 55 51 44 43 43 41 38 38 37 37 36 36 35 34 34 34 34 32 31 33 36 40 40 41 44 52 53 38 21 30 37 33 34
19 22 25 30 35 39 43 47 51 46 45 44 39 35 33 35 32 28 27 28 30 30 30 33 34 35 34 29 30 32 32 32 32 31 30 40 41 59 53 31 30 32 30
22 26 30 34 39 44 48 45 42 39 33 33 32 30 31 32 30 29 25 23 26 28 29 30 30 29 27 25 25 27 31 28 26 29 32 35 35 42 52 47 26 23 24
30 34 38 42 44 42 39 37 31 30 29 30 31 32 32 32 30 28 26 23 24 26 27 29 29 30 27 27 27 30 29 27 31 31 27 26 26 24 32 46 42 34 28
40 42 42 38 35 33 30 29 27 26 27 30 32 34 32 29 29 26 25 27 28 25 25 28 30 28 29 29 30 28 26 29 30 29 29 26 26 20 23 22 25 25 25
37 34 34 33 30 26 24 22 24 24 27 28 28 30 32 32 30 27 27 29 28 26 25 25 26 27 28 30 28 25 24 23 24 28 24 26 21 20 22 24 29 29 25
32 31 30 28 25 23 21 22 23 22 21 24 27 28 31 31 28 25 29 30 30 29 28 30 32 32 30 25 22 20 17 17 17 14 15 16 13 15 19 16 21 27 29
28 26 25 24 23 22 23 23 19 20 21 20 24 26 27 27 27 30 33 29 27 24 24 27 28 28 26 19 17 18 13 16 13 14 15 13 15 17 21 22 20 25 29
23 23 23 21 21 21 22 23 28 25 24 24 27 25 21 22 25 32 27 24 22 20 21 22 23 22 16 16 16 16 16 17 18 20 20 19 18 18 18 21 23 24 27
21 19 19 20 21 22 22 22 23 28 32 33 27 23 19 21 27 23 21 21 17 13 13 14 15 10 11 13 18 19 16 16 18 19 17 13 12 13 16 15 19 25 24
18 18 19 20 20 20 20 21 23 27 27 28 29 24 20 22 22 19 20 22 17 11 6 6 6 7 10 12 16 18 14 12 10 8 11 12 12 12 16 19 21 20 22
18 17 18 20 21 20 20 21 22 24 25 25 26 24 22 23 20 21 21 20 10 9 10 9 11 17 19 15 9 12 15 12 10 14 11 12 15 16 17 20 17 21 30
20 21 21 21 21 21 20 20 21 22 24 24 23 20 19 19 18 21 20 15 7 9 14 19 21 19 16 13 14 11 9 7 8 10 12 10 10 15 15 17 20 27 28
23 24 25 24 22 22 21 20 21 22 22 22 21 17 17 15 15 19 14 12 11 10 14 16 19 20 14 11 3 5 4 6 8 10 9 9 11 16 20 21 20 28 28
28 28 28 28 27 26 26 25 24 23 22 20 19 17 15 15 15 15 12 8 11 10 12 14 17 17 15 12 11 8 1 4 5 10 14 14 17 21 21 16 17 14 15
30 31 31 31 32 32 32 31 29 26 24 22 20 17 15 14 14 14 11 5 9 12 10 15 19 11 14 14 16 13 16 10 11 18 20 22 22 21 23 18 16 18 14
27 29 31 34 35 35 35 35 35 32 28 24 22 19 16 12 11 10 7 5 8 8 6 14 21 19 20 19 14 15 16 9 15 16 18 20 21 22 23 20 14 16 22
28 28 29 31 33 35 36 36 36 36 35 30 25 21 18 15 11 9 6 4 8 4 4 11 17 18 19 18 15 11 9 9 17 15 16 22 25 13 11 9 15 25 31
Wind_Direction
334 350 345 338 329 321 315 312 308 304 297 294 292 295 292 288 280 273 268 267 269 272 270 269 269 270 270 270 270 271 270 267 270 275 275 281 276 269 279 287 288 281 289
334 332 330 328 322 317 313 312 312 309 304 299 295 289 286 285 285 282 279 273 271 275 277 278 275 271 270 269 269 268 267 266 266 272 277 277 280 283 279 270 272 290 288
309 308 307 310 314 312 311 310 312 313 311 307 304 301 299 294 290 285 281 277 275 274 275 275 273 276 276 274 271 271 269 266 267 271 276 277 278 278 255 269 280 294 287
288 295 300 302 303 307 308 308 306 306 305 304 302 300 297 294 292 287 284 280 275 274 274 274 274 271 268 267 268 267 268 269 271 270 269 268 267 263 270 279 286 282 285
294 299 301 300 302 305 308 310 309 307 302 297 294 290 288 286 287 285 282 278 276 275 274 274 273 270 268 268 271 271 268 268 267 268 268 267 265 266 269 275 272 275 259
289 295 298 299 299 301 307 307 299 291 286 285 284 283 283 282 281 280 279 277 276 275 276 275 276 275 273 271 268 269 272 274 271 269 269 264 261 261 266 266 256 266 280
298 295 296 299 301 302 292 287 287 291 292 292 291 290 289 287 285 282 279 278 278 278 279 279 278 277 277 278 275 273 270 268 267 268 266 265 260 261 263 258 259 267 277
297 295 298 294 287 284 285 289 292 294 297 297 295 293 292 291 290 289 287 285 281 278 277 279 278 278 276 278 279 277 275 270 265 263 261 260 261 252 250 257 261 266 272
296 290 286 285 286 290 292 294 297 298 299 298 297 296 297 296 297 296 296 294 291 286 284 280 281 283 282 283 283 281 279 275 271 266 259 255 253 254 252 259 255 255 263
286 287 289 293 296 298 299 300 301 301 300 301 300 301 301 301 301 300 297 296 293 289 284 282 282 284 285 284 282 283 282 279 282 278 270 263 255 248 248 262 254 253 257
293 295 296 298 300 301 302 302 302 304 303 301 302 305 310 309 309 306 304 299 295 295 290 287 286 291 295 291 289 286 281 280 281 275 272 270 262 246 240 244 243 235 244
301 300 301 302 304 305 305 306 306 307 309 310 312 312 312 312 310 307 307 309 305 289 283 285 287 289 286 286 285 284 279 271 274 272 271 273 251 252 238 238 247 248 248
302 303 306 307 309 310 309 311 314 316 317 317 316 313 314 315 313 314 316 312 305 297 289 285 285 282 283 284 287 288 278 271 267 264 273 259 243 251 230 223 224 228 239
307 312 314 315 316 317 316 318 321 321 319 318 315 315 315 314 310 310 313 311 306 298 294 286 282 278 278 287 291 289 277 266 254 268 263 261 245 232 235 236 223 227 232
314 317 320 321 324 326 328 328 327 330 327 322 321 319 317 314 313 313 314 307 301 296 290 278 276 277 285 284 289 296 274 258 275 251 242 244 230 214 223 221 222 228 237
320 324 327 329 333 333 332 332 334 333 331 331 336 332 329 322 323 319 314 305 295 286 282 278 280 281 283 280 291 300 275 263 268 249 243 242 244 242 236 235 227 226 226
327 330 332 332 332 334 335 334 330 333 340 341 343 337 331 328 331 325 320 309 301 293 279 276 280 287 277 280 305 304 294 264 268 266 265 257 250 241 235 233 226 222 221
336 337 335 337 337 336 335 333 334 335 332 332 338 341 340 338 341 335 338 337 326 316 302 291 290 289 296 300 296 301 305 297 279 275 259 257 244 227 213 205 191 203 208
348 349 347 344 342 338 334 333 335 327 329 332 339 347 347 346 349 345 347 348 342 340 7 22 4 315 308 309 315 311 305 315 298 254 243 229 218 215 207 196 193 191 188
4 1 355 351 349 345 343 339 338 339 340 342 345 350 350 348 355 356 357 1 17 32 10 352 329 318 326 339 328 293 305 313 261 243 243 223 219 221 209 197 206 194 191
16 16 11 5 359 355 351 350 348 346 347 346 350 357 1 354 359 359 360 2 23 10 358 352 346 351 350 330 322 310 303 280 238 231 228 221 208 193 194 189 176 184 179
27 25 22 16 13 10 8 1 357 352 351 349 353 2 8 7 4 6 0 12 13 4 356 349 358 356 4 6 346 324 288 245 227 209 189 196 175 179 185 185 165 170 178
35 33 32 29 27 23 20 14 8 2 359 358 357 359 5 9 7 9 4 7 2 348 344 9 4 4 25 28 40 49 281 179 184 186 188 186 172 164 171 191 198 210 209
35 35 33 32 31 29 26 21 16 11 6 4 1 358 358 3 2 5 6 14 352 343 1 19 16 59 42 33 52 59 61 96 120 139 151 161 165 171 177 187 186 185 206
30 33 34 32 30 28 27 25 21 17 13 8 4 1 359 356 2 360 360 1 355 358 27 34 31 29 31 27 44 69 57 72 118 138 154 150 158 173 181 190 227 221 207
29 31 33 33 32 30 28 27 25 23 18 12 7 4 2 360 356 354 348 332 4 10 35 25 34 27 21 25 34 62 74 63 126 132 157 157 161 187 222 224 189 188 190